[[{"header":{"parameterUnit":"m.s-1","parameterCategory":1,"la1":30.2991,"la2":30.254,"lo1":-89.0895,"lo2":-89.0444,"dx":0.0017,"dy":0.0017,"nx":28,"ny":28,"refTime":"2022-11-16T15:00:00:Z","depth":0,"parameterNumber":2,"parameterNumberName":"U-component_of_WINDS"},"data":[0,0,0,0,0,0,0,0,0,0,0,0,0,0,0,0,0,0,0,0,0,0,0,0,0,0,0,0,0,0,0,0,0,0,0,0,0,0,0,0,0,0,0,0,0,0,0,0,0,0,0,0,0,0,0,0,0,0,0.9792,0.9792,0,0.9773,0.9772,0.9772,0.9791,0.9792,0.9793,0.9794,0.9771,0.977,0.9768,0,0,0,0,0,0,0,0,0,0,0,0,0,0.9843,0.9842,0.9792,0.9792,0.9791,0.9773,0.9772,0.9772,0.9791,0.9792,0.9793,0.9794,0.9771,0.977,0.9768,0,0,0,0,0,0,0,0,0,0,0,0,0,0.9822,0.9842,0.9792,0.9799,0.9799,0.9773,0.9772,0.9772,0.9791,0.9792,0.9793,0.9794,0.9772,0.977,0.9768,0.9733,0,0,0.9762,0.9761,0,0,0,0,0,0,0,0,0.9823,0.982,0.9798,0.9798,0.9799,0.9786,0.9782,0.9759,0.9791,0.9794,0.9794,0.9795,0.9775,0.9772,0.9766,0.9732,0.9731,0.9762,0.976,0.976,0.9759,0,0,0,0,0,0,0,0.9825,0.9821,0.9784,0.9798,0.9798,0.9802,0.98,0.9778,0.9778,0.9794,0.9795,0.9793,0.9775,0.9768,0.9766,0.973,0.9762,0.976,0.9759,0.9758,0.9665,0.9664,0,0,0,0,0,0,0.9826,0.9822,0.9785,0.9784,0.9814,0.98,0.9798,0.9789,0.9778,0.9778,0.9792,0.9794,0.9771,0.9768,0.9765,0.9722,0.976,0.9758,0.9757,0.9666,0.9665,0.9663,0,0,0,0,0,0,0.9827,0.9822,0.9786,0.9803,0.9799,0.9798,0.9787,0.9788,0.9781,0.9777,0.9777,0.9785,0.9772,0.9768,0.9741,0.9722,0.9757,0.9755,0.9668,0.9666,0.9664,0.9636,0,0,0,0,0,0,0.9828,0.9822,0.9809,0.9803,0.9798,0.9762,0.9786,0.9786,0.9778,0.978,0.977,0.977,0.9772,0.9743,0.9739,0.9719,0.9753,0.9669,0.9667,0.9665,0.9639,0.9634,0.9629,0,0,0,0,0,0.983,0.9802,0.9809,0.9804,0.9782,0.9761,0.9758,0.9762,0.9776,0.9762,0.976,0.977,0.9725,0.9741,0.9735,0.9715,0.9671,0.9668,0.9665,0.9641,0.9635,0.9629,0,0,0,0,0,0,0.9805,0.9801,0.9808,0.9778,0.977,0.9764,0.9747,0.9756,0.9742,0.9745,0.975,0.9748,0.9719,0.9715,0.9732,0.968,0.97,0.9696,0.9684,0.9678,0.9673,0.9673,0.9752,0,0,0,0,0,0.9796,0.978,0.9778,0.9751,0.9746,0.9748,0.9739,0.9743,0.9734,0.973,0.9726,0.9716,0.97,0.9689,0.9674,0.9639,0.9637,0.9623,0.9618,0.9614,0.961,0.959,0.9584,0.9654,0.9654,0.9654,0,0,0.9777,0.9773,0.9763,0.9746,0.974,0.9722,0.9744,0.9725,0.9711,0.9727,0.9701,0.9698,0.9687,0.9656,0.9642,0.9651,0.959,0.9611,0.9608,0.9605,0.9587,0.958,0.9574,0.9652,0.9652,0.9653,0,0,0.9733,0.9729,0.9706,0.97,0.9691,0.9693,0.9687,0.9681,0.9679,0.9653,0.9665,0.9649,0.9621,0.9613,0.9605,0.956,0.9567,0.9555,0.9528,0.9509,0.9503,0.9499,0.948,0.9474,0.9551,0.9551,0.9551,0,0.971,0.9685,0.9693,0.9672,0.9664,0.9679,0.9655,0.9649,0.9635,0.9628,0.964,0.9605,0.96,0.9566,0.9555,0.9549,0.9542,0.9554,0.9504,0.9499,0.9494,0.9477,0.9471,0.9549,0.9549,0.9549,0.955,0,0.9656,0.9639,0.9621,0.9608,0.9598,0.9576,0.958,0.9569,0.9575,0.9574,0.9547,0.9542,0.9525,0.9518,0.9523,0.9485,0.9491,0.9503,0.9523,0.9486,0.947,0.9463,0.9547,0.9547,0.9548,0.9548,0,0,0.9594,0.9587,0.958,0.9574,0.9566,0.9552,0.9531,0.9516,0.9506,0.9497,0.9477,0.9454,0.9466,0.9457,0.9462,0.9445,0.9407,0.9459,0.9459,0.9448,0.9363,0.9352,0.9345,0.9414,0.9413,0.9412,0.9363,0,0.9548,0.9511,0.9518,0.9482,0.9465,0.948,0.9461,0.9454,0.9453,0.9438,0.9438,0.9421,0.9438,0.9433,0.9417,0.9415,0.939,0.9419,0.9394,0.9393,0.9394,0.9336,0.9325,0.9279,0.9357,0.9356,0.9356,0,0.9489,0.9478,0.944,0.9435,0.9428,0.9411,0.9398,0.9384,0.9376,0.9377,0.9368,0.9376,0.9354,0.9376,0.9345,0.9364,0.9355,0.9353,0.9351,0.9346,0.937,0.9328,0.9265,0.9257,0.9346,0.9347,0.9348,0,0.9444,0.9421,0.9395,0.939,0.9384,0.9371,0.9368,0.9361,0.9352,0.934,0.9334,0.932,0.9312,0.93,0.9304,0.932,0.9271,0.9294,0.927,0.9269,0.9256,0.9256,0.9188,0.9255,0.9255,0.9255,0.9255,0,0.9391,0.9367,0.9375,0.9358,0.9331,0.934,0.9313,0.9312,0.9306,0.9289,0.9302,0.9285,0.9292,0.9276,0.9279,0.9252,0.9249,0.9248,0.9248,0.9245,0.9245,0.9237,0.9239,0.9253,0.9254,0.9254,0.9254,0,0.9335,0.934,0.9312,0.931,0.9308,0.9288,0.9285,0.927,0.9272,0.925,0.9245,0.9247,0.9229,0.9232,0.9212,0.9214,0.9179,0.9185,0.9182,0.9182,0.9157,0.9158,0.9079,0.9068,0.9144,0.9144,0.9143,0,0.9299,0.9281,0.9277,0.9267,0.9263,0.9247,0.9237,0.9246,0.9235,0.9225,0.921,0.9194,0.9181,0.9151,0.915,0.9134,0.9138,0.9112,0.9136,0.9133,0.9135,0.9135,0.9132,0.9106,0.9105,0.9104,0.9104,0,0.9235,0.9238,0.9225,0.9212,0.9201,0.9191,0.9182,0.9173,0.9181,0.9168,0.9151,0.914,0.9121,0.9103,0.9089,0.9085,0.9094,0.9097,0.909,0.9085,0.9083,0.9081,0.9166,0.9098,0.9098,0.9099,0.9099,0.9099,0.9186,0.917,0.9165,0.9149,0.9144,0.9136,0.9121,0.9121,0.9107,0.9091,0.9097,0.9076,0.9069,0.9051,0.9046,0.9029,0.9039,0.903,0.9027,0.9023,0.9019,0.9088,0.9027,0.9027,0.9027,0.9028,0.9028,0,0.912,0.9118,0.9104,0.9091,0.9079,0.9092,0.9083,0.9071,0.9053,0.9046,0.9033,0.9013,0.8996,0.8995,0.8979,0.8966,0.897,0.8961,0.8961,0.8959,0.9013,0.9019,0.8958,0.8958,0.8958,0.8958,0.8958,0.8958,0.9084,0.9057,0.906,0.9031,0.9029,0.9009,0.9003,0.8995,0.8989,0.8966,0.8953,0.8952,0.8947,0.8932,0.8917,0.8917,0.8909,0.8898,0.89,0.8949,0.8956,0.8962,0.8968,0.8897,0.8897,0.8847,0.8847,0.8846]},{"header":{"parameterUnit":"m.s-1","parameterCategory":1,"la1":30.2991,"la2":30.254,"lo1":-89.0895,"lo2":-89.0444,"dx":0.0017,"dy":0.0017,"nx":28,"ny":28,"refTime":"2022-11-16T15:00:00:Z","depth":0,"parameterNumber":3,"parameterNumberName":"V-component_of_WINDS"},"data":[0,0,0,0,0,0,0,0,0,0,0,0,0,0,0,0,0,0,0,0,0,0,0,0,0,0,0,0,0,0,0,0,0,0,0,0,0,0,0,0,0,0,0,0,0,0,0,0,0,0,0,0,0,0,0,0,0,0,-6.2432,-6.2434,0,-6.2592,-6.2594,-6.2596,-6.2523,-6.2519,-6.2516,-6.2512,-6.267,-6.2678,-6.2686,0,0,0,0,0,0,0,0,0,0,0,0,0,-6.206,-6.2067,-6.2432,-6.2434,-6.2436,-6.2592,-6.2594,-6.2596,-6.2524,-6.2519,-6.2515,-6.251,-6.2668,-6.2677,-6.2687,0,0,0,0,0,0,0,0,0,0,0,0,0,-6.2221,-6.207,-6.2432,-6.2419,-6.242,-6.2591,-6.2594,-6.2597,-6.2525,-6.2519,-6.2513,-6.2508,-6.2665,-6.2676,-6.2688,-6.288,0,0,-6.2724,-6.2729,0,0,0,0,0,0,0,0,-6.2212,-6.2235,-6.2419,-6.242,-6.2421,-6.2532,-6.2521,-6.2692,-6.2527,-6.2485,-6.2512,-6.2505,-6.2629,-6.2643,-6.2686,-6.2887,-6.2894,-6.2725,-6.2732,-6.2738,-6.2741,0,0,0,0,0,0,0,-6.2201,-6.2227,-6.2495,-6.2422,-6.2423,-6.2404,-6.242,-6.2553,-6.2588,-6.2488,-6.2483,-6.2503,-6.2628,-6.2675,-6.2689,-6.2897,-6.2725,-6.2735,-6.2743,-6.2747,-6.3263,-6.3269,0,0,0,0,0,0,-6.219,-6.2218,-6.249,-6.25,-6.23,-6.2415,-6.2434,-6.2502,-6.2586,-6.2594,-6.2508,-6.2499,-6.2657,-6.2675,-6.2695,-6.2925,-6.2737,-6.2749,-6.2755,-6.3257,-6.3265,-6.3272,0,0,0,0,0,0,-6.2183,-6.2215,-6.2484,-6.2358,-6.2391,-6.2428,-6.2506,-6.2509,-6.2555,-6.2602,-6.2607,-6.255,-6.2654,-6.2678,-6.2835,-6.293,-6.2754,-6.2765,-6.3249,-6.3259,-6.3268,-6.3388,0,0,0,0,0,0,-6.2172,-6.2213,-6.2288,-6.236,-6.2398,-6.2623,-6.2512,-6.2516,-6.2576,-6.2566,-6.2642,-6.2649,-6.2651,-6.2818,-6.2847,-6.2943,-6.2774,-6.324,-6.3253,-6.3265,-6.3376,-6.3401,-6.3422,0,0,0,0,0,-6.2159,-6.2314,-6.2292,-6.2325,-6.2492,-6.2629,-6.265,-6.265,-6.2584,-6.2659,-6.2689,-6.2647,-6.2915,-6.2834,-6.2866,-6.2968,-6.3234,-6.325,-6.3264,-6.3365,-6.3396,-6.3422,0,0,0,0,0,0,-6.225,-6.2323,-6.23,-6.2483,-6.2551,-6.2617,-6.2711,-6.2683,-6.2769,-6.2756,-6.2751,-6.2769,-6.2931,-6.2965,-6.2874,-6.3158,-6.3064,-6.3086,-6.313,-6.316,-6.3182,-6.3171,-6.2784,0,0,0,0,0,-6.2292,-6.2398,-6.2456,-6.2612,-6.2647,-6.2673,-6.2733,-6.2727,-6.2796,-6.2824,-6.2865,-6.2933,-6.3032,-6.3097,-6.3191,-6.338,-6.3395,-6.3465,-6.3488,-6.3507,-6.3526,-6.3629,-6.366,-6.332,-6.332,-6.332,0,0,-6.2378,-6.2431,-6.2498,-6.2631,-6.2683,-6.2792,-6.2698,-6.2817,-6.2898,-6.2842,-6.2993,-6.3026,-6.31,-6.3274,-6.3353,-6.3307,-6.3624,-6.3526,-6.3541,-6.355,-6.3647,-6.3679,-6.3708,-6.333,-6.3328,-6.3327,0,0,-6.2591,-6.2643,-6.2778,-6.2833,-6.2913,-6.2929,-6.2962,-6.3033,-6.3053,-6.3205,-6.3165,-6.326,-6.3431,-6.3486,-6.3536,-6.3771,-6.3735,-6.3801,-6.3922,-6.4022,-6.4049,-6.4073,-6.4156,-6.4187,-6.382,-6.382,-6.382,0,-6.2688,-6.2853,-6.2851,-6.2975,-6.3034,-6.299,-6.3126,-6.3178,-6.3284,-6.3326,-6.3273,-6.3488,-6.3534,-6.3721,-6.3778,-6.382,-6.3856,-6.3793,-6.4046,-6.4069,-6.4091,-6.4171,-6.4203,-6.3828,-6.3827,-6.3826,-6.3825,0,-6.2968,-6.3083,-6.3182,-6.3288,-6.3358,-6.3488,-6.3504,-6.3575,-6.3563,-6.3585,-6.374,-6.3795,-6.3899,-6.3943,-6.3931,-6.4128,-6.4097,-6.4045,-6.3951,-6.4131,-6.4206,-6.4237,-6.3839,-6.3836,-6.3834,-6.3832,0,0,-6.3244,-6.3347,-6.3384,-6.3431,-6.3516,-6.3604,-6.3731,-6.3834,-6.3895,-6.397,-6.4075,-6.4221,-6.4174,-6.4231,-6.4226,-6.4313,-6.4496,-6.4251,-6.4253,-6.4295,-6.4715,-6.4753,-6.4789,-6.4472,-6.4478,-6.4483,-6.4709,0,-6.3464,-6.3688,-6.369,-6.3896,-6.4001,-6.3961,-6.4071,-6.4134,-6.4157,-6.4249,-6.4273,-6.4377,-6.4307,-6.4342,-6.4426,-6.4456,-6.458,-6.4439,-6.4569,-6.4574,-6.4553,-6.4828,-6.4869,-6.508,-6.4738,-6.4743,-6.4746,0,-6.3751,-6.3837,-6.4054,-6.4123,-6.4168,-6.4267,-6.4362,-6.4451,-6.4521,-6.4531,-6.4596,-6.4577,-6.4704,-6.4606,-6.4781,-6.4686,-6.4739,-6.4761,-6.4769,-6.4781,-6.4672,-6.4848,-6.5147,-6.5179,-6.4792,-6.4789,-6.4785,0,-6.3931,-6.41,-6.4252,-6.4293,-6.4379,-6.4449,-6.4488,-6.4552,-6.4615,-6.4697,-6.4737,-6.4833,-6.4885,-6.4959,-6.4966,-6.4894,-6.5142,-6.5044,-6.5154,-6.5154,-6.5208,-6.5205,-6.552,-6.5242,-6.5241,-6.5241,-6.524,0,-6.4177,-6.4311,-6.4334,-6.4427,-6.4576,-6.4576,-6.4723,-6.4755,-6.4813,-6.491,-6.488,-6.4972,-6.4975,-6.5069,-6.5075,-6.5219,-6.5242,-6.5254,-6.5254,-6.5257,-6.5256,-6.5292,-6.5278,-6.5249,-6.5247,-6.5246,-6.5244,0,-6.4403,-6.4424,-6.4587,-6.4655,-6.4675,-6.4781,-6.4838,-6.4927,-6.4947,-6.5071,-6.51,-6.5131,-6.524,-6.5254,-6.538,-6.5384,-6.5558,-6.5542,-6.5535,-6.5533,-6.5641,-6.5631,-6.5992,-6.6039,-6.5729,-6.5732,-6.5735,0,-6.456,-6.4662,-6.4741,-6.4806,-6.4848,-6.4952,-6.5016,-6.5019,-6.5086,-6.5174,-6.5252,-6.5358,-6.5443,-6.5618,-6.5651,-6.5748,-6.5734,-6.5854,-6.5748,-6.5749,-6.5737,-6.5731,-6.5741,-6.5875,-6.5878,-6.5881,-6.5883,0,-6.4835,-6.484,-6.4934,-6.5032,-6.5109,-6.5186,-6.5258,-6.5312,-6.5325,-6.5401,-6.5513,-6.558,-6.5709,-6.5815,-6.591,-6.5947,-6.5918,-6.5916,-6.5946,-6.5951,-6.5943,-6.5949,-6.5591,-6.5908,-6.5905,-6.5903,-6.5902,-6.5901,-6.5031,-6.512,-6.519,-6.5296,-6.5351,-6.5419,-6.5506,-6.5538,-6.5631,-6.5739,-6.5734,-6.5858,-6.5924,-6.6049,-6.6094,-6.6189,-6.6149,-6.6193,-6.6204,-6.6215,-6.6227,-6.5928,-6.6206,-6.6205,-6.6204,-6.6204,-6.6203,0,-6.5305,-6.5348,-6.5445,-6.5548,-6.5631,-6.5597,-6.5675,-6.5746,-6.5856,-6.5921,-6.6006,-6.6134,-6.6236,-6.6278,-6.6377,-6.6445,-6.6434,-6.6471,-6.6466,-6.6476,-6.6256,-6.622,-6.6479,-6.6479,-6.6479,-6.6479,-6.6479,-6.6478,-6.5457,-6.5607,-6.562,-6.5796,-6.5838,-6.596,-6.6007,-6.607,-6.6122,-6.6267,-6.6353,-6.6379,-6.6435,-6.6538,-6.663,-6.6639,-6.6677,-6.6721,-6.6724,-6.6519,-6.6491,-6.6464,-6.6431,-6.6729,-6.673,-6.6936,-6.6938,-6.6939]}]]